Карточка аэропорта URSS

Внимание!
Информация на этой странице в стадии наполнения.
Если вы не увидели какой-то информации, или заметили неточность - пожалуйста сообщите нам!
Спасибо!
Команда RU-STAFF
Название аэропортаСочи
Название аэропорта (англ.)Sochi
Превышение89 ft. (27.1 m.)
Координаты43°26.634', 39°56.55'
Высота перехода13000 ft
Эшелон переходаQNH>=977hPa: FL150; QNH<977hPa: FL160
Коды ответчика1060-1077
Зона ОрВДРостов-на-Дону РПИ (URRV)
Данные METARURSS 271100Z 18003MPS 9999 NSC 12/01 Q1020 R02/010070 R06/010070 NOSIG RMK R06/21002MPS QFE763
Проноз погоды (TAF)URSS 270755Z 2709/2809 16004G09MPS 9999 NSC BECMG 2715/2716 05004G09MPS SCT010 TEMPO 2716/2806 BKN006 BECMG 2807/2808 18003G08MPS FEW016
NOTAMshow/hide NOTAM
AWOS   TABLE

Информация о ВПП

ВПП Длина ВПП (м.) Покрытие Курс ВПП Частота ILS
022500Цементобетон22110.5
062890Цементобетон58111.1
202500Цементобетон202 
242890Цементобетон238 

Диспетчерские позиции

Позывной Наименование органа УВД Частота
URSS_TWRСочи-Старт121.200
URSS_R_APPСочи-Круг119.700
URSS_GNDСочи-Руление119.000
URSS_FM1119.000
URSS_DELСочи-Деливери132.700
URSS_APPСочи-Подход124.600



Спутниковое изображение